Simultaneous Nadir Overpasses (SNOs) Predictions

Prediction of SNOs between TERRA and METOP-C Satellite Orbit:

Table of predicted SNOs for the next 14.0 days since TLE Epoch: 1/30/2021
Index Date (TERRA) Time (TERRA) Lat,Lon (TERRA) SZA (TERRA ) Date (METOP-C) Time (METOP-C) Lat,Lon (METOP-C) SZA (METOP-C ) Distance(km) Time Diff (sec)
1 01/31/2021 06:33:54 -81.29, -51.94 79.18 01/31/2021 06:33:29 -81.28, -52.06 79.20 2.23 25
2 01/31/2021 07:23:20 81.29, 115.81 100.84 01/31/2021 07:24:08 81.29, 115.73 100.84 1.52 48
3 02/03/2021 02:08:08 -81.27, 14.27 80.03 02/03/2021 02:07:52 -81.28, 14.30 80.03 0.70 16
4 02/03/2021 02:57:34 81.28,-178.01 99.98 02/03/2021 02:58:31 81.29,-177.97 100.02 0.99 57
5 02/05/2021 21:42:21 -81.28, 80.81 80.86 02/05/2021 21:42:15 -81.28, 80.63 80.88 3.02 6
6 02/05/2021 22:31:46 81.28,-111.49 99.14 02/05/2021 22:32:53 81.28,-111.69 99.15 3.31 67
7 02/08/2021 16:27:07 81.26, -20.68 98.23 02/08/2021 16:25:56 81.27, -20.71 98.20 0.85 71
8 02/08/2021 17:16:33 -81.28, 147.32 81.74 02/08/2021 17:16:36 -81.28, 147.34 81.73 0.37 3
9 02/11/2021 12:01:20 81.26, 45.76 97.32 02/11/2021 12:00:18 81.27, 45.93 97.32 3.15 62



Historial Predications of SNOs between TERRA and METOP-C
